< < Back
Terminal Aerodrome Forecast


Current Version              Previous Versions:   1  2  3  4  5  6  7  8  9  

Terminal Aerodrome Forecast

712
FTUS44 KBMX 021100
TAFTCL
TAF
KTCL 021136Z 0212/0312 00000KT P6SM FEW005 SCT018 BKN180
     FM021500 22006KT P6SM SCT050 SCT150
     FM030000 00000KT P6SM SCT150=



Latest METAR

062
SAUS70 KWBC 021400 RRJ
MTRTCL
METAR KTCL 021353Z 19003KT 9SM CLR 26/23 A3010 RMK AO2 SLP190
T02610233


USA.gov is the U.S. government's official web portal to all federal, state and local government web resources and services.